Location: Mount Wilson Observatory
(34.2257°N, 118.0571°W)
Time: 05:27:05
(UTC-07:00)

ATLAS 3B CENTAUR R/B - Visible Passes

Search period start: 02 October 2014 00:00
Search period end: 12 October 2014 00:00
Orbit: 231 x 8419 km, 28.1° (Epoch: 01 October)

Date Brightness Start Highest point End Pass type
(mag) Time Alt. Az. Time Alt. Az. Time Alt. Az.
02 Oct 4.7 04:34:09 14° S 04:34:09 14° S 04:38:49 10° SSE visible
02 Oct 4.5 19:11:24 10° SSW 19:21:27 19° S 19:26:34 10° SE visible
03 Oct 4.8 05:03:05 10° SSW 05:05:05 11° S 05:08:11 10° SSE visible
03 Oct 4.1 19:42:08 10° SW 19:52:22 23° S 19:55:38 17° SE visible
04 Oct 3.8 20:12:52 10° SW 20:22:40 26° S 20:23:55 25° SSE visible
05 Oct 3.7 20:43:24 10° SW 20:51:52 29° S 20:51:52 29° S visible
06 Oct 4.1 21:13:39 10° WSW 21:19:27 26° SW 21:19:27 26° SW visible
07 Oct 4.6 21:43:31 10° WSW 21:46:42 19° SW 21:46:42 19° SW visible
08 Oct 4.4 18:44:41 10° SW 19:03:26 33° S 19:10:11 10° ESE visible
08 Oct 5.1 22:12:57 10° WSW 22:13:36 12° WSW 22:13:36 12° WSW visible
09 Oct 4.0 19:14:34 10° SW 19:32:07 38° S 19:36:50 19° ESE visible
10 Oct 3.5 19:44:13 10° WSW 20:00:15 42° S 20:03:04 30° SE visible
11 Oct 3.2 20:13:32 10° WSW 20:27:51 46° S 20:28:58 42° SSE visible
